Location: NJAA Observatory
(40.6819°N, 74.8979°W)
Time: 13:11:41
(UTC-04:00)

Cosmos 2263 Rocket - Visible Passes

Search period start: 30 July 2014 00:00
Search period end: 09 August 2014 00:00
Orbit: 824 x 849 km, 71.0° (Epoch: 29 July)

Date Brightness Start Highest point End Pass type
(mag) Time Alt. Az. Time Alt. Az. Time Alt. Az.
30 Jul 3.8 01:06:51 24° E 01:06:51 24° E 01:10:07 10° NE visible
30 Jul 2.8 02:48:33 42° WNW 02:49:09 43° WNW 02:54:34 10° NNE visible
31 Jul 4.0 00:50:35 21° ENE 00:50:35 21° ENE 00:53:23 10° NE visible
31 Jul 2.7 02:32:17 47° WNW 02:32:31 47° WNW 02:37:59 10° NNE visible
01 Aug 4.1 00:34:18 19° ENE 00:34:18 19° ENE 00:36:38 10° NE visible
01 Aug 2.7 02:15:59 51° WNW 02:15:59 51° WNW 02:21:25 10° NNE visible
02 Aug 4.2 00:17:59 17° ENE 00:17:59 17° ENE 00:19:51 10° NE visible
02 Aug 2.6 01:59:40 54° NW 01:59:40 54° NW 02:04:50 10° NNE visible
03 Aug 4.3 00:01:38 15° ENE 00:01:38 15° ENE 00:03:03 10° ENE visible
03 Aug 2.7 01:43:19 56° NNW 01:43:19 56° NNW 01:48:15 10° NNE visible
03 Aug 4.6 03:26:57 10° NW 03:27:48 10° NW 03:28:39 10° NW visible
03 Aug 4.4 23:45:15 13° ENE 23:45:15 13° ENE 23:46:13 10° ENE visible
04 Aug 2.7 01:26:56 56° NNW 01:26:56 56° NNW 01:31:39 10° NNE visible
04 Aug 4.6 03:09:28 10° WNW 03:11:06 11° NW 03:12:44 10° NNW visible
04 Aug 4.5 23:28:51 11° ENE 23:28:51 11° ENE 23:29:21 10° ENE visible
05 Aug 2.7 01:10:32 55° N 01:10:32 55° N 01:15:04 10° NNE visible
05 Aug 4.5 02:52:16 10° WNW 02:54:24 12° NW 02:56:32 10° NNW visible
05 Aug 4.5 23:12:25 10° ENE 23:12:25 10° ENE 23:12:26 10° ENE visible
06 Aug 2.8 00:54:05 54° N 00:54:05 54° N 00:58:28 10° NNE visible
06 Aug 4.5 02:35:46 11° WNW 02:37:42 13° NW 02:40:14 10° NNW visible
07 Aug 2.8 00:37:37 52° NNE 00:37:37 52° NNE 00:41:52 10° NNE visible
07 Aug 4.5 02:19:18 12° WNW 02:21:00 14° NW 02:23:52 10° NNW visible
08 Aug 2.8 00:21:06 51° NNE 00:21:06 51° NNE 00:25:15 10° NNE visible
08 Aug 4.4 02:02:47 14° WNW 02:04:19 15° NW 02:07:29 10° NNW visible
